Probability
0 0 0 0 0 0 0 0 1 2 3 3 5 8 10 7 2 0 0 0 1 2 2 4 7 5 4 3 4 5 7 6 4 3 2 1 0 0 1 1 0 0 0 0 0 0 0 0 0
0 0 0 0 0 0 0 0 2 3 5 8 10 11 9 5 1 0 0 1 2 3 3 5 7 6 4 3 4 6 7 6 4 3 1 0 0 1 2 2 1 0 0 0 0 0 0 0 0
0 0 0 0 0 0 0 2 4 6 9 12 14 13 8 4 1 1 1 3 4 4 4 6 8 6 4 4 4 5 6 5 4 3 1 1 1 2 3 3 2 1 0 0 0 0 0 0 0
0 0 0 0 0 0 1 3 5 7 10 14 15 13 9 5 4 6 7 7 7 6 5 8 10 9 7 6 5 5 6 6 6 4 3 3 3 3 3 2 3 2 1 0 0 0 0 0 0
0 0 0 0 0 0 2 3 5 8 12 16 17 15 12 9 11 13 11 10 10 10 9 11 13 12 11 9 7 7 8 8 8 7 6 5 4 4 3 3 3 2 1 0 0 0 0 0 0
0 0 0 0 0 0 1 2 7 12 16 19 21 20 16 14 16 17 14 12 13 13 13 13 15 14 13 11 9 8 9 9 9 9 9 8 7 4 3 3 2 1 0 0 0 0 0 0 0
0 0 0 0 0 0 1 5 12 17 20 22 22 20 17 17 20 20 17 15 13 13 14 13 12 12 12 12 11 11 10 10 10 10 9 9 7 4 3 2 2 1 0 0 0 0 0 0 1
0 0 1 1 0 1 3 9 16 20 23 24 20 17 17 21 25 25 22 18 13 11 12 11 9 9 10 12 12 13 11 10 10 10 8 7 5 4 3 2 3 2 1 1 1 1 1 1 2
0 1 2 3 1 1 4 10 16 21 25 27 24 20 22 27 30 30 26 22 16 11 9 9 8 7 8 10 10 11 11 10 10 9 7 5 4 3 2 2 2 2 2 2 2 2 2 1 2
1 2 3 3 2 2 4 8 13 18 23 27 28 25 26 30 32 31 29 26 21 13 8 6 6 6 6 7 7 7 8 9 8 7 6 5 4 3 1 1 1 1 2 3 3 3 2 1 1
2 2 3 3 3 4 5 7 10 13 16 22 27 28 27 28 30 31 32 29 22 16 10 8 7 5 4 5 5 5 6 7 6 6 5 4 4 3 1 0 0 1 2 3 3 2 2 1 0
1 2 2 3 4 6 8 10 11 12 13 19 26 28 27 25 25 28 32 30 24 19 16 13 10 7 5 6 6 6 6 6 5 4 4 4 4 4 3 1 1 1 2 2 1 1 1 1 1
1 1 1 2 5 7 10 11 12 14 17 23 28 31 28 24 22 26 31 31 27 23 20 18 14 10 9 8 8 8 8 6 5 4 4 6 6 5 4 3 2 3 3 2 1 0 0 0 0
1 0 1 2 4 5 8 9 10 13 19 25 29 32 31 28 26 30 34 33 28 25 24 22 18 14 12 11 10 10 9 6 5 5 5 6 5 5 4 4 3 3 2 1 0 0 0 0 0
0 0 1 2 2 3 4 6 7 11 19 26 30 33 34 32 32 35 37 35 30 29 30 28 24 20 17 15 12 11 8 6 5 4 4 5 5 5 5 4 3 2 1 0 0 0 0 0 0
0 0 1 1 1 1 2 4 7 14 22 28 32 36 36 32 31 33 36 35 33 34 34 33 29 25 22 19 15 11 7 5 4 4 4 5 5 5 4 4 3 1 0 1 1 1 0 0 0
0 0 0 0 0 0 2 5 9 16 23 28 33 38 38 34 30 30 34 36 37 36 36 34 31 28 23 19 15 11 8 6 5 5 6 6 6 5 4 4 3 1 0 1 1 1 0 0 0
0 0 0 0 0 1 3 7 12 17 22 27 32 37 39 35 33 35 38 40 39 37 35 35 32 27 20 15 13 11 10 8 7 6 6 6 7 7 6 6 5 2 0 0 0 0 0 0 0
0 0 0 0 0 1 4 8 12 16 21 24 27 33 36 35 36 40 42 41 39 36 34 34 31 24 16 12 11 10 10 8 6 5 5 6 8 9 9 8 6 2 0 0 0 0 0 0 0
0 0 0 0 1 2 3 5 8 12 17 20 23 28 32 34 37 39 40 39 38 34 31 30 27 20 14 11 9 9 8 7 5 4 5 6 8 9 9 8 5 1 0 0 0 0 0 0 0
0 0 0 0 1 2 2 3 4 6 12 17 20 23 29 34 36 36 36 37 36 32 28 25 20 14 11 9 8 7 7 5 4 3 4 4 5 6 6 6 4 1 0 0 0 0 0 0 0
0 0 0 0 0 1 1 1 1 4 8 14 17 21 28 33 34 34 35 34 31 27 24 20 14 9 8 7 6 5 5 4 3 3 3 2 2 2 3 3 3 1 0 0 0 0 0 0 0
0 0 0 0 0 0 0 0 1 3 6 11 15 20 26 29 31 33 34 30 25 22 21 18 12 7 6 6 4 3 3 3 3 2 1 1 1 0 1 1 2 1 0 0 0 0 0 0 0
0 0 0 0 0 0 0 0 0 2 5 9 13 19 23 25 28 31 31 27 22 20 19 16 12 8 7 6 4 3 3 3 3 2 0 0 1 1 1 1 1 1 0 0 0 0 0 0 0
0 0 0 0 0 0 0 0 1 3 5 8 12 18 22 23 25 28 28 25 20 17 16 14 11 9 7 5 4 3 3 3 3 2 1 2 2 2 2 2 2 2 1 0 0 0 0 0 0
0 0 0 0 0 0 0 0 2 3 6 8 12 17 21 23 25 27 26 21 16 13 13 13 11 9 7 5 4 4 3 3 3 4 4 4 4 3 3 3 3 2 1 0 0 0 0 0 0
0 0 0 0 0 0 0 0 1 3 5 8 12 16 20 23 26 26 23 18 13 11 11 12 12 10 7 5 4 3 3 3 4 5 6 5 4 3 2 2 2 2 1 0 0 0 0 0 0
0 0 0 0 0 0 0 0 1 2 4 7 11 15 17 21 24 23 20 18 14 11 9 10 10 9 7 5 4 3 3 3 4 5 5 4 2 1 1 1 1 1 0 0 0 0 0 0 0
0 0 0 0 0 0 0 0 1 1 2 4 9 13 16 19 20 18 17 17 15 12 11 10 8 7 5 4 3 3 3 3 3 3 3 1 1 0 0 0 0 0 0 0 0 0 0 0 0
0 0 0 0 0 0 0 1 1 1 1 3 8 12 15 18 17 15 15 15 15 14 13 10 7 5 4 4 3 3 3 3 2 1 1 0 0 0 0 0 0 0 0 0 0 0 0 0 0
Wind_Speed
3 2 1 3 5 4 3 5 3 2 3 4 6 10 9 6 4 6 4 13 14 12 9 13 16 15 15 14 14 14 13 13 12 12 11 11 10 10 9 9 8 7 7 6 6 5 5 4 4
2 1 3 4 5 0 5 3 1 1 4 5 6 7 8 8 8 10 7 12 14 12 8 11 16 16 15 15 14 13 13 12 12 11 11 10 9 9 8 8 7 6 6 5 5 4 4 3 2
2 1 3 4 3 5 5 1 2 2 2 3 4 6 6 6 9 7 9 15 12 10 8 12 17 16 15 15 14 13 13 12 11 11 10 9 8 7 7 7 6 5 5 4 3 3 2 1 1
2 4 4 3 4 5 5 3 2 3 4 5 6 7 5 4 5 11 16 15 13 10 8 11 16 16 15 15 14 13 13 12 11 10 9 8 7 6 6 5 5 4 3 2 1 1 1 1 2
3 4 3 1 4 4 3 3 3 3 2 4 6 7 5 5 15 17 16 15 14 10 7 9 15 15 15 14 14 13 12 11 10 9 8 7 6 6 5 4 3 3 2 1 1 1 1 3 4
4 4 3 2 4 3 3 2 2 4 5 3 6 7 4 8 14 14 14 12 13 12 8 9 14 15 14 14 13 12 11 10 9 8 7 6 6 5 4 4 3 2 1 1 1 2 3 4 5
4 3 2 3 2 3 3 2 5 5 4 3 6 6 5 7 10 12 12 11 11 10 9 7 7 10 12 12 12 11 10 9 8 8 7 6 5 4 4 3 3 3 2 2 3 4 4 5 6
5 3 1 2 1 3 2 3 5 6 4 4 5 8 8 9 11 12 11 10 10 8 7 6 6 5 5 7 11 11 10 9 8 7 7 5 4 4 3 3 3 3 3 4 4 5 5 6 6
3 3 2 3 3 2 1 4 2 4 6 3 2 5 11 14 13 13 11 9 8 8 6 6 6 5 5 5 7 8 9 8 7 5 5 4 1 1 1 3 3 4 4 4 5 6 6 6 6
4 3 6 5 4 2 1 3 3 4 6 4 7 9 12 12 13 13 12 11 9 9 7 6 6 6 5 5 4 3 3 3 3 2 2 1 1 1 1 2 3 4 4 4 5 6 5 4 3
4 5 5 4 2 3 3 1 2 6 5 8 13 14 12 11 10 10 10 10 10 9 8 7 7 6 5 3 4 2 2 2 2 2 2 1 1 0 1 0 2 2 3 2 4 4 2 2 2
2 4 4 4 1 3 4 3 4 2 5 9 13 14 13 11 10 9 10 8 8 8 7 7 7 6 5 4 4 3 2 2 2 2 2 2 1 0 0 0 1 1 1 2 2 2 2 2 3
3 4 3 3 1 4 6 5 6 4 8 9 11 12 11 10 9 8 9 9 8 8 7 7 7 6 5 4 3 4 3 3 2 2 2 2 1 0 0 1 1 1 1 1 2 2 3 3 3
3 2 2 1 1 1 7 5 6 6 10 11 11 11 10 10 10 8 9 8 8 8 8 7 6 6 5 4 3 3 3 3 3 2 2 2 1 1 0 0 1 1 2 2 1 2 2 2 2
2 1 3 2 1 2 5 2 4 9 10 10 10 10 10 9 8 9 9 8 8 8 7 7 6 5 5 4 4 3 3 3 3 2 2 2 1 1 1 0 0 1 1 2 1 2 1 2 2
3 3 2 4 1 2 5 4 6 9 11 10 10 10 9 7 7 7 8 7 7 7 6 6 6 5 5 4 3 3 3 3 2 2 1 1 1 2 1 0 0 1 1 1 1 1 1 2 2
4 1 2 5 2 2 4 4 6 8 10 10 9 9 9 7 6 6 7 7 7 7 6 6 6 5 4 4 3 3 3 2 2 2 1 1 1 1 1 0 1 1 1 1 1 1 1 1 2
2 1 2 5 4 3 3 4 5 8 9 9 9 9 8 7 7 7 7 7 7 6 6 7 6 5 4 3 3 3 3 2 1 1 1 1 0 1 1 0 1 1 1 1 1 1 1 1 2
3 1 3 6 5 1 2 3 6 8 7 8 9 9 8 7 5 6 7 7 7 6 6 6 6 4 4 3 2 2 1 1 1 0 0 0 0 0 1 1 1 1 1 1 1 1 2 2 1
1 1 3 4 2 1 2 3 5 7 9 10 10 9 9 7 6 6 7 6 6 6 5 5 5 4 3 2 2 2 2 1 1 1 1 1 1 1 1 1 0 1 1 2 2 1 1 1 1
2 3 4 3 2 2 2 2 1 3 4 4 5 7 9 11 10 9 8 7 7 7 5 4 4 4 3 3 2 2 2 2 1 1 1 1 1 1 1 0 0 0 1 0 1 1 0 1 1
4 5 5 2 2 2 2 1 5 2 2 3 5 6 8 9 9 8 8 8 8 7 6 5 4 3 3 3 3 3 2 1 1 1 1 1 1 1 1 1 1 0 0 0 1 0 0 0 1
6 4 2 1 2 2 2 2 5 0 1 4 6 7 8 9 10 10 10 9 8 7 6 5 4 3 3 3 3 3 2 1 0 0 0 1 1 1 1 1 1 1 1 1 1 1 1 1 1
2 4 4 5 4 1 3 3 5 3 5 4 6 7 8 9 9 9 9 8 7 6 6 5 5 3 3 3 3 3 3 3 2 0 0 1 1 1 1 1 0 1 1 1 1 1 1 1 1
4 6 4 5 4 5 3 2 6 5 5 5 6 8 7 8 8 9 9 8 7 7 6 5 5 4 3 3 3 3 3 4 3 2 2 2 1 1 2 1 1 1 2 2 1 1 2 2 2
2 7 6 4 4 4 2 2 5 3 2 2 4 6 7 7 8 9 9 8 8 7 6 6 5 4 4 4 3 3 3 2 2 2 2 2 2 3 2 1 1 2 2 2 1 1 2 2 2
1 1 5 6 1 1 2 2 3 0 1 1 3 5 5 6 8 9 8 7 7 7 6 7 6 4 3 4 4 3 3 2 2 2 2 2 2 2 1 1 2 2 2 2 1 1 2 2 2
3 4 5 4 1 2 4 3 4 5 4 3 4 5 5 5 6 7 7 7 6 5 5 5 5 5 4 4 3 3 3 2 2 2 1 1 2 2 1 2 2 2 2 2 1 2 2 2 2
3 3 3 2 3 3 3 6 5 7 7 7 6 7 8 8 7 7 6 6 6 5 5 4 4 3 3 3 3 2 2 2 1 1 1 2 2 2 2 2 2 2 2 2 1 2 2 2 3
2 2 4 3 2 3 3 7 5 4 5 6 6 6 6 7 7 6 6 6 5 5 4 4 4 3 3 3 2 2 2 1 1 1 1 1 2 2 2 2 1 2 2 2 1 2 2 2 2
Wind_Direction
260 249 129 68 57 48 269 251 225 307 29 34 70 92 92 79 121 137 128 131 134 138 141 139 135 132 130 127 125 123 121 118 115 111 108 105 103 101 100 99 97 96 95 94 94 93 89 81 74
258 219 65 64 89 84 269 255 204 281 141 118 71 78 80 75 88 111 123 135 135 136 137 138 137 134 132 130 129 128 126 123 120 117 115 112 110 107 106 105 103 99 96 93 91 88 85 75 57
268 136 90 84 136 192 231 235 151 94 92 101 87 60 73 103 112 119 139 138 131 129 130 139 138 137 136 135 134 133 132 130 127 125 122 119 117 115 112 109 107 105 100 95 91 83 72 53 24
62 50 53 82 244 237 215 227 120 78 36 48 98 79 66 82 117 129 136 135 128 126 128 140 139 139 139 139 139 138 137 135 133 131 128 127 126 124 121 119 117 116 113 110 105 81 15 330 320
69 79 59 322 262 260 243 216 153 94 64 44 85 91 64 59 113 129 136 136 131 129 131 139 139 140 142 142 143 143 142 141 139 137 135 136 135 134 134 136 133 138 146 158 212 276 300 301 303
56 75 94 253 256 270 262 241 127 100 103 86 80 88 73 120 127 135 136 134 134 135 135 139 141 141 143 145 146 146 145 145 143 141 140 140 140 143 149 153 159 176 206 240 267 277 286 289 292
121 107 195 233 251 262 245 149 109 112 125 135 121 98 118 139 138 137 132 129 131 135 135 135 142 143 144 146 147 146 144 144 144 143 145 149 154 159 164 172 193 213 231 255 269 276 283 288 289
152 102 301 269 237 250 255 95 106 114 115 121 130 139 153 160 140 128 124 124 127 131 134 135 135 135 137 144 148 149 147 146 145 147 154 158 167 181 193 204 221 238 253 267 277 283 287 293 294
115 84 249 242 221 241 84 92 70 83 111 110 123 141 149 144 132 126 123 125 132 136 140 142 143 140 138 143 152 150 147 146 146 147 153 157 161 200 230 251 250 259 270 277 284 286 289 296 296
124 167 231 230 209 164 114 107 129 105 97 94 96 109 130 137 136 137 142 146 147 149 153 152 148 148 149 156 144 143 146 142 139 135 145 137 131 241 232 279 272 281 292 295 296 295 297 300 294
168 199 231 275 240 135 123 114 98 127 135 154 147 144 142 136 137 142 146 154 156 157 158 159 156 157 162 154 148 151 144 143 146 146 149 138 128 299 278 302 303 300 302 308 312 311 303 298 288
214 249 222 244 229 127 142 136 84 109 168 158 149 146 142 143 149 155 150 151 151 155 161 161 160 159 162 154 156 157 157 158 164 165 151 136 128 345 314 264 275 289 298 303 313 307 307 301 296
233 247 240 210 115 136 119 127 124 138 136 133 133 137 145 147 151 154 151 152 149 151 156 162 159 159 161 155 161 157 161 162 163 147 146 138 141 174 279 294 294 290 288 287 298 309 311 309 308
210 199 252 237 137 132 125 134 124 160 148 144 148 150 151 152 153 149 151 153 153 157 162 163 159 160 154 154 155 153 154 152 137 130 134 139 152 149 127 308 300 298 296 287 279 296 305 304 309
187 71 349 313 275 180 121 91 172 170 155 154 158 158 156 158 153 153 157 156 156 158 156 152 151 145 141 143 149 142 141 138 137 138 132 129 129 130 132 118 342 303 302 310 323 329 343 330 323
37 59 348 288 254 231 128 191 204 171 161 163 165 167 162 165 159 153 152 151 150 146 143 144 137 124 121 124 128 129 130 132 140 134 118 108 99 116 110 97 341 309 313 341 331 341 336 321 317
27 57 273 288 253 203 135 193 194 174 169 171 171 171 167 164 163 158 155 151 147 144 139 129 120 119 117 113 106 109 110 114 127 118 104 76 63 92 96 79 313 318 0 351 323 341 309 308 315
247 224 253 255 259 182 174 191 174 176 172 175 176 171 170 169 173 161 152 143 136 131 127 126 122 122 120 108 94 83 76 76 88 103 126 123 66 55 84 89 348 7 15 349 331 314 325 292 291
199 213 263 261 244 147 170 182 186 175 175 178 177 172 172 173 163 148 143 140 132 127 127 129 130 133 124 115 115 111 110 96 63 59 91 137 282 354 70 34 359 21 26 336 337 325 331 321 339
206 263 291 298 282 137 175 204 201 184 185 185 175 175 174 159 149 147 140 140 140 138 136 138 136 132 127 133 139 140 135 130 105 22 4 334 343 345 72 76 21 11 17 5 355 4 332 313 7
271 208 230 248 338 46 103 354 267 208 186 177 171 167 172 168 165 160 153 153 148 143 144 142 136 131 131 131 111 95 78 58 38 7 340 326 349 14 23 358 105 28 102 332 321 343 355 294 300
259 236 218 208 79 313 94 257 278 235 189 188 184 174 175 173 166 163 160 159 155 150 144 139 139 139 142 136 132 136 141 152 208 216 248 305 348 359 339 339 31 34 43 307 289 353 260 198 276
229 234 223 141 120 29 358 123 277 277 198 211 201 185 178 179 174 172 166 162 156 149 146 148 143 146 145 144 147 144 138 153 187 263 332 327 324 310 310 334 16 343 302 274 285 303 285 230 229
176 52 25 45 73 6 247 169 264 239 221 201 192 182 173 177 178 168 155 149 149 146 145 145 145 156 156 152 148 152 154 154 147 183 253 286 290 299 309 314 348 292 278 270 277 273 270 250 244
65 81 31 1 5 255 251 164 243 241 228 194 177 172 172 169 163 158 156 157 156 156 157 157 155 167 173 169 171 176 174 171 179 198 214 226 246 260 272 293 284 272 271 269 273 273 273 255 250
200 134 154 198 230 272 326 221 260 251 237 189 153 152 148 152 157 157 161 164 162 165 166 168 173 181 184 185 192 191 181 180 199 207 210 219 233 241 246 248 259 272 289 300 304 293 277 266 263
129 180 169 142 167 302 284 269 293 319 96 106 115 127 143 152 152 160 161 161 165 169 176 179 179 182 187 194 193 190 187 189 203 216 217 230 246 248 253 253 268 290 299 307 314 300 295 288 274
120 141 76 87 124 284 287 251 234 213 198 179 161 158 160 150 146 152 154 156 160 168 176 179 180 183 189 194 195 189 189 196 207 202 206 216 242 250 260 279 281 286 295 302 298 288 287 297 290
19 48 87 112 156 170 255 267 241 202 190 182 181 168 160 158 157 157 157 155 157 159 163 165 173 179 187 186 182 168 183 186 177 185 211 222 238 242 248 258 266 276 289 291 280 276 286 291 290
122 138 127 135 257 192 206 264 284 192 181 173 165 164 161 157 151 145 146 146 154 161 164 170 173 174 183 176 163 163 173 170 175 200 231 230 243 253 242 245 264 272 278 279 272 281 297 287 286